"Time","Value","Approval","myLocation"
"2023-04-25 00:00",3.92857761796176,"Approved","OW361"
"2023-04-25 01:00",3.92858033678302,"Approved","OW361"
"2023-04-25 02:00",3.92858305560428,"Approved","OW361"
"2023-04-25 03:00",3.92858577442554,"Approved","OW361"
"2023-04-25 04:00",3.9305884932468,"Approved","OW361"
"2023-04-25 05:00",3.93359121206806,"Approved","OW361"
"2023-04-25 06:00",3.92859393088932,"Approved","OW361"
"2023-04-25 07:00",3.93159664971058,"Approved","OW361"
"2023-04-25 08:00",3.92959936853184,"Approved","OW361"
"2023-04-25 09:00",3.9276020873531,"Approved","OW361"
"2023-04-25 10:00",3.92860480617436,"Approved","OW361"
"2023-04-25 11:00",3.92860752499561,"Approved","OW361"
"2023-04-25 12:00",3.92961024381687,"Approved","OW361"
"2023-04-25 13:00",3.92961296263813,"Approved","OW361"
"2023-04-25 14:00",3.92761568145939,"Approved","OW361"
"2023-04-25 15:00",3.92761840028065,"Approved","OW361"
"2023-04-25 16:00",3.92862111910191,"Approved","OW361"
"2023-04-25 17:00",3.92562383792317,"Approved","OW361"
"2023-04-25 18:00",3.92262655674443,"Approved","OW361"
"2023-04-25 19:00",3.92362927556569,"Approved","OW361"
"2023-04-25 20:00",3.91863199438695,"Approved","OW361"
"2023-04-25 21:00",3.91563471320821,"Approved","OW361"
"2023-04-25 22:00",3.91363743202947,"Approved","OW361"
"2023-04-25 23:00",3.90864015085073,"Approved","OW361"
"2023-04-26 00:00",3.90264286967199,"Approved","OW361"
"2023-04-26 01:00",3.89964558849325,"Approved","OW361"
"2023-04-26 02:00",3.89764830731451,"Approved","OW361"
"2023-04-26 03:00",3.89765102613577,"Approved","OW361"
"2023-04-26 04:00",3.90165374495702,"Approved","OW361"
"2023-04-26 05:00",3.90365646377828,"Approved","OW361"
"2023-04-26 06:00",3.89965918259954,"Approved","OW361"
"2023-04-26 07:00",3.9006619014208,"Approved","OW361"
"2023-04-26 08:00",3.90166462024206,"Approved","OW361"
"2023-04-26 09:00",3.89366733906332,"Approved","OW361"
"2023-04-26 10:00",3.89267005788458,"Approved","OW361"
"2023-04-26 11:00",3.88767277670584,"Approved","OW361"
"2023-04-26 12:00",3.8856754955271,"Approved","OW361"
"2023-04-26 13:00",3.88567821434836,"Approved","OW361"
"2023-04-26 14:00",3.88968093316962,"Approved","OW361"
"2023-04-26 15:00",3.88668365199088,"Approved","OW361"
"2023-04-26 16:00",3.88568637081214,"Approved","OW361"
"2023-04-26 17:00",3.8886890896334,"Approved","OW361"
"2023-04-26 18:00",3.89069180845466,"Approved","OW361"
"2023-04-26 19:00",3.89269452727592,"Approved","OW361"
"2023-04-26 20:00",3.88569724609718,"Approved","OW361"
"2023-04-26 21:00",3.88369996491844,"Approved","OW361"
"2023-04-26 22:00",3.88270268373969,"Approved","OW361"
"2023-04-26 23:00",3.87770540256095,"Approved","OW361"
"2023-04-27 00:00",3.87570812138221,"Approved","OW361"
"2023-04-27 01:00",3.87471084020347,"Approved","OW361"
"2023-04-27 02:00",3.87671355902473,"Approved","OW361"
"2023-04-27 03:00",3.87771627784599,"Approved","OW361"
"2023-04-27 04:00",3.88171899666725,"Approved","OW361"
"2023-04-27 05:00",3.88372171548851,"Approved","OW361"
"2023-04-27 06:00",3.88272443430977,"Approved","OW361"
"2023-04-27 07:00",3.88672715313103,"Approved","OW361"
"2023-04-27 08:00",3.88772987195229,"Approved","OW361"
"2023-04-27 09:00",3.88873259077355,"Approved","OW361"
"2023-04-27 10:00",3.88973530959481,"Approved","OW361"
"2023-04-27 11:00",3.89073802841607,"Approved","OW361"
"2023-04-27 12:00",3.89374074723733,"Approved","OW361"
"2023-04-27 13:00",3.89574346605859,"Approved","OW361"
"2023-04-27 14:00",3.90174618487985,"Approved","OW361"
"2023-04-27 15:00",3.9047489037011,"Approved","OW361"
"2023-04-27 16:00",3.90475162252236,"Approved","OW361"
"2023-04-27 17:00",3.90375434134362,"Approved","OW361"
"2023-04-27 18:00",3.90175706016488,"Approved","OW361"
"2023-04-27 19:00",3.89775977898614,"Approved","OW361"
"2023-04-27 20:00",3.8907624978074,"Approved","OW361"
"2023-04-27 21:00",3.88276521662866,"Approved","OW361"
"2023-04-27 22:00",3.87776793544992,"Approved","OW361"
"2023-04-27 23:00",3.87377065427118,"Approved","OW361"
"2023-04-28 00:00",3.87277337309244,"Approved","OW361"
"2023-04-28 01:00",3.8707760919137,"Approved","OW361"
"2023-04-28 02:00",3.86777881073496,"Approved","OW361"
"2023-04-28 03:00",3.86478152955622,"Approved","OW361"
"2023-04-28 04:00",3.86478424837748,"Approved","OW361"
"2023-04-28 05:00",3.86578696719874,"Approved","OW361"
"2023-04-28 06:00",3.86478968602,"Approved","OW361"
"2023-04-28 07:00",3.86279240484126,"Approved","OW361"
"2023-04-28 08:00",3.86279512366252,"Approved","OW361"
"2023-04-28 09:00",3.86479784248378,"Approved","OW361"
"2023-04-28 10:00",3.86580056130503,"Approved","OW361"
"2023-04-28 11:00",3.86380328012629,"Approved","OW361"
"2023-04-28 12:00",3.86180599894755,"Approved","OW361"
"2023-04-28 13:00",3.86280871776881,"Approved","OW361"
"2023-04-28 14:00",3.86381143659007,"Approved","OW361"
"2023-04-28 15:00",3.86481415541133,"Approved","OW361"
"2023-04-28 16:00",3.86181687423259,"Approved","OW361"
"2023-04-28 17:00",3.85981959305385,"Approved","OW361"
"2023-04-28 18:00",3.85482231187511,"Approved","OW361"
"2023-04-28 19:00",3.84782503069637,"Approved","OW361"
"2023-04-28 20:00",3.84082774951763,"Approved","OW361"
"2023-04-28 21:00",3.83383046833889,"Approved","OW361"
"2023-04-28 22:00",3.82983318716015,"Approved","OW361"
"2023-04-28 23:00",3.82583590598141,"Approved","OW361"
"2023-04-29 00:00",3.82283862480267,"Approved","OW361"
"2023-04-29 01:00",3.81984134362393,"Approved","OW361"
"2023-04-29 02:00",3.81884406244518,"Approved","OW361"
"2023-04-29 03:00",3.81884678126644,"Approved","OW361"
"2023-04-29 04:00",3.8218495000877,"Approved","OW361"
"2023-04-29 05:00",3.82585221890896,"Approved","OW361"
"2023-04-29 06:00",3.82985493773022,"Approved","OW361"
"2023-04-29 07:00",3.83285765655148,"Approved","OW361"
"2023-04-29 08:00",3.83786037537274,"Approved","OW361"
"2023-04-29 09:00",3.839863094194,"Approved","OW361"
"2023-04-29 10:00",3.84286581301526,"Approved","OW361"
"2023-04-29 11:00",3.84386853183652,"Approved","OW361"
"2023-04-29 12:00",3.84887125065778,"Approved","OW361"
"2023-04-29 13:00",3.85287396947904,"Approved","OW361"
"2023-04-29 14:00",3.8578766883003,"Approved","OW361"
"2023-04-29 15:00",3.86287940712156,"Approved","OW361"
"2023-04-29 16:00",3.86488212594282,"Approved","OW361"
"2023-04-29 17:00",3.86488484476408,"Approved","OW361"
"2023-04-29 18:00",3.86388756358534,"Approved","OW361"
"2023-04-29 19:00",3.8618902824066,"Approved","OW361"
"2023-04-29 20:00",3.85889300122785,"Approved","OW361"
"2023-04-29 21:00",3.85289572004911,"Approved","OW361"
"2023-04-29 22:00",3.85289843887037,"Approved","OW361"
"2023-04-29 23:00",3.84790115769163,"Approved","OW361"
"2023-04-30 00:00",3.84190387651289,"Approved","OW361"
"2023-04-30 01:00",3.83790659533415,"Approved","OW361"
"2023-04-30 02:00",3.83490931415541,"Approved","OW361"
"2023-04-30 03:00",3.83691203297667,"Approved","OW361"
"2023-04-30 04:00",3.83791475179793,"Approved","OW361"
"2023-04-30 05:00",3.83991747061919,"Approved","OW361"
"2023-04-30 06:00",3.84392018944045,"Approved","OW361"
"2023-04-30 07:00",3.84292290826171,"Approved","OW361"
"2023-04-30 08:00",3.84292562708297,"Approved","OW361"
"2023-04-30 09:00",3.84292834590423,"Approved","OW361"
"2023-04-30 10:00",3.84393106472549,"Approved","OW361"
"2023-04-30 11:00",3.84593378354675,"Approved","OW361"
"2023-04-30 12:00",3.84793650236801,"Approved","OW361"
"2023-04-30 13:00",3.84893922118927,"Approved","OW361"
"2023-04-30 14:00",3.85294194001052,"Approved","OW361"
"2023-04-30 15:00",3.85494465883178,"Approved","OW361"
"2023-04-30 16:00",3.85794737765304,"Approved","OW361"
"2023-04-30 17:00",3.8599500964743,"Approved","OW361"
"2023-04-30 18:00",3.86095281529556,"Approved","OW361"
"2023-04-30 19:00",3.86195553411682,"Approved","OW361"
"2023-04-30 20:00",3.85895825293808,"Approved","OW361"
"2023-04-30 21:00",3.85596097175934,"Approved","OW361"
"2023-04-30 22:00",3.8559636905806,"Approved","OW361"
"2023-04-30 23:00",3.85296640940186,"Approved","OW361"
"2023-05-01 00:00",3.85396912822312,"Approved","OW361"
"2023-05-01 01:00",3.85397184704438,"Approved","OW361"
"2023-05-01 02:00",3.85297456586564,"Approved","OW361"
"2023-05-01 03:00",3.8539772846869,"Approved","OW361"
"2023-05-01 04:00",3.85298000350816,"Approved","OW361"
"2023-05-01 05:00",3.85498272232942,"Approved","OW361"
"2023-05-01 06:00",3.85498544115068,"Approved","OW361"
"2023-05-01 07:00",3.85698815997194,"Approved","OW361"
"2023-05-01 08:00",3.85699087879319,"Approved","OW361"
"2023-05-01 09:00",3.85699359761445,"Approved","OW361"
"2023-05-01 10:00",3.85399631643571,"Approved","OW361"
"2023-05-01 11:00",3.85499903525697,"Approved","OW361"
"2023-05-01 12:00",3.85300175407823,"Approved","OW361"
"2023-05-01 13:00",3.85300447289949,"Approved","OW361"
"2023-05-01 14:00",3.85200719172075,"Approved","OW361"
"2023-05-01 15:00",3.85500991054201,"Approved","OW361"
"2023-05-01 16:00",3.85501262936327,"Approved","OW361"
"2023-05-01 17:00",3.85401534818453,"Approved","OW361"
"2023-05-01 18:00",3.85501806700579,"Approved","OW361"
"2023-05-01 19:00",3.85302078582705,"Approved","OW361"
"2023-05-01 20:00",3.85002350464831,"Approved","OW361"
"2023-05-01 21:00",3.84702622346957,"Approved","OW361"
"2023-05-01 22:00",3.84802894229083,"Approved","OW361"
"2023-05-01 23:00",3.84903166111209,"Approved","OW361"
"2023-05-02 00:00",3.84803437993334,"Approved","OW361"
"2023-05-02 01:00",3.8500370987546,"Approved","OW361"
"2023-05-02 02:00",3.84903981757586,"Approved","OW361"
"2023-05-02 03:00",3.85004253639712,"Approved","OW361"
"2023-05-02 04:00",3.84704525521838,"Approved","OW361"
"2023-05-02 05:00",3.84804797403964,"Approved","OW361"
"2023-05-02 06:00",3.8460506928609,"Approved","OW361"
"2023-05-02 07:00",3.84405341168216,"Approved","OW361"
"2023-05-02 08:00",3.85305613050342,"Approved","OW361"
"2023-05-02 09:00",3.85505884932468,"Approved","OW361"
"2023-05-02 10:00",3.85006156814594,"Approved","OW361"
"2023-05-02 11:00",3.8600642869672,"Approved","OW361"
"2023-05-02 12:00",3.85506700578846,"Approved","OW361"
"2023-05-02 13:00",3.84706972460972,"Approved","OW361"
"2023-05-02 14:00",3.83807244343098,"Approved","OW361"
"2023-05-02 15:00",3.83907516225224,"Approved","OW361"
"2023-05-02 16:00",3.8390778810735,"Approved","OW361"
"2023-05-02 17:00",3.83408059989476,"Approved","OW361"
"2023-05-02 18:00",3.83008331871601,"Approved","OW361"
"2023-05-02 19:00",3.82808603753727,"Approved","OW361"
"2023-05-02 20:00",3.82508875635853,"Approved","OW361"
"2023-05-02 21:00",3.82109147517979,"Approved","OW361"
"2023-05-02 22:00",3.81809419400105,"Approved","OW361"
"2023-05-02 23:00",3.81609691282231,"Approved","OW361"
"2023-05-03 00:00",3.82009963164357,"Approved","OW361"
"2023-05-03 01:00",3.82510235046483,"Approved","OW361"
"2023-05-03 02:00",3.83310506928609,"Approved","OW361"
"2023-05-03 03:00",3.83610778810735,"Approved","OW361"
"2023-05-03 04:00",3.84511050692861,"Approved","OW361"
"2023-05-03 05:00",3.85511322574987,"Approved","OW361"
"2023-05-03 06:00",3.86311594457113,"Approved","OW361"
"2023-05-03 07:00",3.87011866339239,"Approved","OW361"
"2023-05-03 08:00",3.87512138221365,"Approved","OW361"
"2023-05-03 09:00",3.87912410103491,"Approved","OW361"
"2023-05-03 10:00",3.87912681985617,"Approved","OW361"
"2023-05-03 11:00",3.88112953867743,"Approved","OW361"
"2023-05-03 12:00",3.88013225749868,"Approved","OW361"
"2023-05-03 13:00",3.87813497631994,"Approved","OW361"
"2023-05-03 14:00",3.8761376951412,"Approved","OW361"
"2023-05-03 15:00",3.87414041396246,"Approved","OW361"
"2023-05-03 16:00",3.86714313278372,"Approved","OW361"
"2023-05-03 17:00",3.86314585160498,"Approved","OW361"
"2023-05-03 18:00",3.85814857042624,"Approved","OW361"
"2023-05-03 19:00",3.8511512892475,"Approved","OW361"
"2023-05-03 20:00",3.84615400806876,"Approved","OW361"
"2023-05-03 21:00",3.84115672689002,"Approved","OW361"
"2023-05-03 22:00",3.83615944571128,"Approved","OW361"
"2023-05-03 23:00",3.83216216453254,"Approved","OW361"
"2023-05-04 00:00",3.8271648833538,"Approved","OW361"
"2023-05-04 01:00",3.82216760217506,"Approved","OW361"
"2023-05-04 02:00",3.82117032099632,"Approved","OW361"
"2023-05-04 03:00",3.82417303981758,"Approved","OW361"
"2023-05-04 04:00",3.83117575863884,"Approved","OW361"
"2023-05-04 05:00",3.84117847746009,"Approved","OW361"
"2023-05-04 06:00",3.85118119628135,"Approved","OW361"
"2023-05-04 07:00",3.85918391510261,"Approved","OW361"
"2023-05-04 08:00",3.86618663392387,"Approved","OW361"
"2023-05-04 09:00",3.87018935274513,"Approved","OW361"
"2023-05-04 10:00",3.87219207156639,"Approved","OW361"
"2023-05-04 11:00",3.87819479038765,"Approved","OW361"
"2023-05-04 12:00",3.87219750920891,"Approved","OW361"
"2023-05-04 13:00",3.86320022803017,"Approved","OW361"
"2023-05-04 14:00",3.85820294685143,"Approved","OW361"
"2023-05-04 15:00",3.85420566567269,"Approved","OW361"
"2023-05-04 16:00",3.85120838449395,"Approved","OW361"
"2023-05-04 17:00",3.85221110331521,"Approved","OW361"
"2023-05-04 18:00",3.85721382213647,"Approved","OW361"
"2023-05-04 19:00",3.85621654095773,"Approved","OW361"
"2023-05-04 20:00",3.84821925977899,"Approved","OW361"
"2023-05-04 21:00",3.84222197860025,"Approved","OW361"
"2023-05-04 22:00",3.8362246974215,"Approved","OW361"
"2023-05-04 23:00",3.83522741624276,"Approved","OW361"
"2023-05-05 00:00",3.84023013506402,"Approved","OW361"
"2023-05-05 01:00",3.84523285388528,"Approved","OW361"
"2023-05-05 02:00",3.84923557270654,"Approved","OW361"
"2023-05-05 03:00",3.8552382915278,"Approved","OW361"
"2023-05-05 04:00",3.86024101034906,"Approved","OW361"
"2023-05-05 05:00",3.86724372917032,"Approved","OW361"
"2023-05-05 06:00",3.87124644799158,"Approved","OW361"
"2023-05-05 07:00",3.87824916681284,"Approved","OW361"
"2023-05-05 08:00",3.8682518856341,"Approved","OW361"
"2023-05-05 09:00",3.87525460445536,"Approved","OW361"
"2023-05-05 10:00",3.87225732327662,"Approved","OW361"
"2023-05-05 11:00",3.87126004209788,"Approved","OW361"
"2023-05-05 12:00",3.87626276091914,"Approved","OW361"
"2023-05-05 13:00",3.8742654797404,"Approved","OW361"
"2023-05-05 14:00",3.87726819856166,"Approved","OW361"
"2023-05-05 15:00",3.88227091738292,"Approved","OW361"
"2023-05-05 16:00",3.88427363620417,"Approved","OW361"
"2023-05-05 17:00",3.88427635502543,"Approved","OW361"
"2023-05-05 18:00",3.88827907384669,"Approved","OW361"
"2023-05-05 19:00",3.89028179266795,"Approved","OW361"
"2023-05-05 20:00",3.89328451148921,"Approved","OW361"
"2023-05-05 21:00",3.89628723031047,"Approved","OW361"
"2023-05-05 22:00",3.90028994913173,"Approved","OW361"
"2023-05-05 23:00",3.90029266795299,"Approved","OW361"
"2023-05-06 00:00",3.90129538677425,"Approved","OW361"
"2023-05-06 01:00",3.90529810559551,"Approved","OW361"
"2023-05-06 02:00",3.90630082441677,"Approved","OW361"
"2023-05-06 03:00",3.90730354323803,"Approved","OW361"
"2023-05-06 04:00",3.90830626205929,"Approved","OW361"
"2023-05-06 05:00",3.91030898088055,"Approved","OW361"
"2023-05-06 06:00",3.90831169970181,"Approved","OW361"
"2023-05-06 07:00",3.90831441852307,"Approved","OW361"
"2023-05-06 08:00",3.90631713734433,"Approved","OW361"
"2023-05-06 09:00",3.90531985616558,"Approved","OW361"
"2023-05-06 10:00",3.90432257498684,"Approved","OW361"
"2023-05-06 11:00",3.9033252938081,"Approved","OW361"
"2023-05-06 12:00",3.90232801262936,"Approved","OW361"
"2023-05-06 13:00",3.90133073145062,"Approved","OW361"
"2023-05-06 14:00",3.90133345027188,"Approved","OW361"
"2023-05-06 15:00",3.90233616909314,"Approved","OW361"
"2023-05-06 16:00",3.9033388879144,"Approved","OW361"
"2023-05-06 17:00",3.90334160673566,"Approved","OW361"
"2023-05-06 18:00",3.90634432555692,"Approved","OW361"
"2023-05-06 19:00",3.90634704437818,"Approved","OW361"
"2023-05-06 20:00",3.90634976319944,"Approved","OW361"
"2023-05-06 21:00",3.9053524820207,"Approved","OW361"
"2023-05-06 22:00",3.90635520084196,"Approved","OW361"
"2023-05-06 23:00",3.90635791966322,"Approved","OW361"
"2023-05-07 00:00",3.90636063848448,"Approved","OW361"
"2023-05-07 01:00",3.90536335730574,"Approved","OW361"
"2023-05-07 02:00",3.906366076127,"Approved","OW361"
"2023-05-07 03:00",3.90636879494825,"Approved","OW361"
"2023-05-07 04:00",3.90737151376951,"Approved","OW361"
"2023-05-07 05:00",3.90737423259077,"Approved","OW361"
"2023-05-07 06:00",3.90637695141203,"Approved","OW361"
"2023-05-07 07:00",3.90637967023329,"Approved","OW361"
"2023-05-07 08:00",3.90738238905455,"Approved","OW361"
"2023-05-07 09:00",3.90738510787581,"Approved","OW361"
"2023-05-07 10:00",3.90738782669707,"Approved","OW361"
"2023-05-07 11:00",3.90739054551833,"Approved","OW361"
"2023-05-07 12:00",3.90739326433959,"Approved","OW361"
"2023-05-07 13:00",3.90839598316085,"Approved","OW361"
"2023-05-07 14:00",3.91039870198211,"Approved","OW361"
"2023-05-07 15:00",3.91440142080337,"Approved","OW361"
"2023-05-07 16:00",3.91640413962463,"Approved","OW361"
"2023-05-07 17:00",3.91740685844589,"Approved","OW361"
"2023-05-07 18:00",3.91640957726715,"Approved","OW361"
"2023-05-07 19:00",3.91541229608841,"Approved","OW361"
"2023-05-07 20:00",3.91441501490967,"Approved","OW361"
"2023-05-07 21:00",3.91341773373092,"Approved","OW361"
"2023-05-07 22:00",3.91142045255218,"Approved","OW361"
"2023-05-07 23:00",3.90942317137344,"Approved","OW361"
"2023-05-08 00:00",3.9064258901947,"Approved","OW361"
"2023-05-08 01:00",3.90542860901596,"Approved","OW361"
"2023-05-08 02:00",3.90343132783722,"Approved","OW361"
"2023-05-08 03:00",3.90343404665848,"Approved","OW361"
"2023-05-08 04:00",3.90543676547974,"Approved","OW361"
"2023-05-08 05:00",3.906439484301,"Approved","OW361"
"2023-05-08 06:00",3.90744220312226,"Approved","OW361"
"2023-05-08 07:00",3.90544492194352,"Approved","OW361"
"2023-05-08 08:00",3.90344764076478,"Approved","OW361"
"2023-05-08 09:00",3.90245035958604,"Approved","OW361"
"2023-05-08 10:00",3.9004530784073,"Approved","OW361"
"2023-05-08 11:00",3.89945579722856,"Approved","OW361"
"2023-05-08 12:00",3.89745851604982,"Approved","OW361"
"2023-05-08 13:00",3.89846123487108,"Approved","OW361"
"2023-05-08 14:00",3.89946395369233,"Approved","OW361"
"2023-05-08 15:00",3.89946667251359,"Approved","OW361"
"2023-05-08 16:00",3.89846939133485,"Approved","OW361"
"2023-05-08 17:00",3.89547211015611,"Approved","OW361"
"2023-05-08 18:00",3.89347482897737,"Approved","OW361"
"2023-05-08 19:00",3.89147754779863,"Approved","OW361"
"2023-05-08 20:00",3.89148026661989,"Approved","OW361"
"2023-05-08 21:00",3.89048298544115,"Approved","OW361"
"2023-05-08 22:00",3.88848570426241,"Approved","OW361"
"2023-05-08 23:00",3.88748842308367,"Approved","OW361"
"2023-05-09 00:00",3.88749114190493,"Approved","OW361"
"2023-05-09 01:00",3.88949386072619,"Approved","OW361"
"2023-05-09 02:00",3.89049657954745,"Approved","OW361"
"2023-05-09 03:00",3.89349929836871,"Approved","OW361"
"2023-05-09 04:00",3.89850201718997,"Approved","OW361"
"2023-05-09 05:00",3.90250473601123,"Approved","OW361"
"2023-05-09 06:00",3.90550745483249,"Approved","OW361"
"2023-05-09 07:00",3.90551017365374,"Approved","OW361"
"2023-05-09 08:00",3.906512892475,"Approved","OW361"
"2023-05-09 09:00",3.90951561129626,"Approved","OW361"
"2023-05-09 10:00",3.91351833011752,"Approved","OW361"
"2023-05-09 11:00",3.91852104893878,"Approved","OW361"
"2023-05-09 12:00",3.92052376776004,"Approved","OW361"
"2023-05-09 13:00",3.9235264865813,"Approved","OW361"
"2023-05-09 14:00",3.92652920540256,"Approved","OW361"
"2023-05-09 15:00",3.93253192422382,"Approved","OW361"
"2023-05-09 16:00",3.93153464304508,"Approved","OW361"
"2023-05-09 17:00",3.93153736186634,"Approved","OW361"
"2023-05-09 18:00",3.9305400806876,"Approved","OW361"
"2023-05-09 19:00",3.93154279950886,"Approved","OW361"
"2023-05-09 20:00",3.92954551833012,"Approved","OW361"
"2023-05-09 21:00",3.92454823715138,"Approved","OW361"
"2023-05-09 22:00",3.92255095597264,"Approved","OW361"
"2023-05-09 23:00",3.9185536747939,"Approved","OW361"
"2023-05-10 00:00",3.91555639361516,"Approved","OW361"
"2023-05-10 01:00",3.91455911243641,"Approved","OW361"
"2023-05-10 02:00",3.91556183125767,"Approved","OW361"
"2023-05-10 03:00",3.91656455007893,"Approved","OW361"
"2023-05-10 04:00",3.91956726890019,"Approved","OW361"
"2023-05-10 05:00",3.92156998772145,"Approved","OW361"
"2023-05-10 06:00",3.92157270654271,"Approved","OW361"
"2023-05-10 07:00",3.92257542536397,"Approved","OW361"
"2023-05-10 08:00",3.92257814418523,"Approved","OW361"
"2023-05-10 09:00",3.92058086300649,"Approved","OW361"
"2023-05-10 10:00",3.91858358182775,"Approved","OW361"
"2023-05-10 11:00",3.91958630064901,"Approved","OW361"
"2023-05-10 12:00",3.91958901947027,"Approved","OW361"
"2023-05-10 13:00",3.91759173829153,"Approved","OW361"
"2023-05-10 14:00",3.91759445711279,"Approved","OW361"
"2023-05-10 15:00",3.91759717593405,"Approved","OW361"
"2023-05-10 16:00",3.91959989475531,"Approved","OW361"
"2023-05-10 17:00",3.91860261357657,"Approved","OW361"
"2023-05-10 18:00",3.91560533239783,"Approved","OW361"
"2023-05-10 19:00",3.91460805121908,"Approved","OW361"
"2023-05-10 20:00",3.91161077004034,"Approved","OW361"
"2023-05-10 21:00",3.9076134888616,"Approved","OW361"
"2023-05-10 22:00",3.90661620768286,"Approved","OW361"
"2023-05-10 23:00",3.90661892650412,"Approved","OW361"
"2023-05-11 00:00",3.90562164532538,"Approved","OW361"
"2023-05-11 01:00",3.90462436414664,"Approved","OW361"
"2023-05-11 02:00",3.9026270829679,"Approved","OW361"
"2023-05-11 03:00",3.90462980178916,"Approved","OW361"
"2023-05-11 04:00",3.90963252061042,"Approved","OW361"
"2023-05-11 05:00",3.91863523943168,"Approved","OW361"
"2023-05-11 06:00",3.92263795825294,"Approved","OW361"
"2023-05-11 07:00",3.9256406770742,"Approved","OW361"
"2023-05-11 08:00",3.92764339589546,"Approved","OW361"
"2023-05-11 09:00",3.92964611471672,"Approved","OW361"
"2023-05-11 10:00",3.93164883353798,"Approved","OW361"
"2023-05-11 11:00",3.93365155235924,"Approved","OW361"
"2023-05-11 12:00",3.93665427118049,"Approved","OW361"
"2023-05-11 13:00",3.93965699000175,"Approved","OW361"
"2023-05-11 14:00",3.94265970882301,"Approved","OW361"
"2023-05-11 15:00",3.94566242764427,"Approved","OW361"
"2023-05-11 16:00",3.94866514646553,"Approved","OW361"
"2023-05-11 17:00",3.94966786528679,"Approved","OW361"
"2023-05-11 18:00",3.95067058410805,"Approved","OW361"
"2023-05-11 19:00",3.94767330292931,"Approved","OW361"
"2023-05-11 20:00",3.94367602175057,"Approved","OW361"
"2023-05-11 21:00",3.94267874057183,"Approved","OW361"
"2023-05-11 22:00",3.93868145939309,"Approved","OW361"
"2023-05-11 23:00",3.93668417821435,"Approved","OW361"
"2023-05-12 00:00",3.93368689703561,"Approved","OW361"
"2023-05-12 01:00",3.93268961585687,"Approved","OW361"
"2023-05-12 02:00",3.93169233467813,"Approved","OW361"
"2023-05-12 03:00",3.93169505349939,"Approved","OW361"
"2023-05-12 04:00",3.93369777232065,"Approved","OW361"
"2023-05-12 05:00",3.93970049114191,"Approved","OW361"
"2023-05-12 06:00",3.94370320996316,"Approved","OW361"
"2023-05-12 07:00",3.94770592878442,"Approved","OW361"
"2023-05-12 08:00",3.95170864760568,"Approved","OW361"
"2023-05-12 09:00",3.95671136642694,"Approved","OW361"
"2023-05-12 10:00",3.9577140852482,"Approved","OW361"
"2023-05-12 11:00",3.95771680406946,"Approved","OW361"
"2023-05-12 12:00",3.95971952289072,"Approved","OW361"
"2023-05-12 13:00",3.96072224171198,"Approved","OW361"
"2023-05-12 14:00",3.96372496053324,"Approved","OW361"
"2023-05-12 15:00",3.9667276793545,"Approved","OW361"
"2023-05-12 16:00",3.97073039817576,"Approved","OW361"
"2023-05-12 17:00",3.97173311699702,"Approved","OW361"
"2023-05-12 18:00",3.97173583581828,"Approved","OW361"
"2023-05-12 19:00",3.97073855463954,"Approved","OW361"